Location: ActonStarParty
(42.4766°N, 71.4538°W)
Time: 10:08:01
(UTC-04:00)

Landsat 7 - Pass Details

Date: 19 April 2018
Orbit: 701 x 703 km, 98.2° (Epoch: 20 September)

Event Time Altitude Azimuth Distance (km) Brightness Sun altitude
Exits shadow 22:04:16 49° 57° (ENE) 902 4.2 -24.7°
Drops below altitude 10° 22:08:33 10° 357° (N) 2,180 7.0 -25.3°
Sets 22:10:52 0° 353° (N) 3,102 8.0 -25.6°
